Location: El Bakhil
(32.7726°N, 5.5387°W)
Time: 19:07:41
(UTC+00:00)

CZ-4 R/B - Pass Details

Date: 03 March 2021
Orbit: 532 x 597 km, 97.7° (Epoch: 10 April)

Event Time Altitude Azimuth Distance (km) Brightness Sun altitude
Rises 19:34:26 0° 185° (S) 2,659 4.9 -16.2°
Reaches altitude 10° 19:36:39 10° 194° (SSW) 1,774 4.0 -16.7°
Maximum altitude 19:40:11 36° 262° (W) 865 2.9 -17.4°
Drops below altitude 10° 19:43:46 10° 329° (NNW) 1,799 4.4 -18.2°
Sets 19:46:02 0° 338° (NNW) 2,702 5.2 -18.6°
